User: anonymous   Login
Location: Karcze
(52.0945°N, 22.4786°E)
Time: 23:13:43
(UTC+00:00)
Language:

Cosmos 2360 Rocket - Orbit

View from above orbital plane
View from above orbital plane
View from above satellite
View from above satellite

Ground track
Ground track

The orbit data is extracted from the following two-line orbital elements,

1 25407U 98045B   20263.80114805 -.00000241  00000-0 -98030-4 0  9997
2 25407  71.0115  59.3231 0008182 206.5625 153.5080 14.15830350144701
Epoch (UTC): 19 September 2020 19:13:39
Eccentricity: 0.0008182
inclination: 71.0115°
perigee height: 833 km
apogee height: 845 km
right ascension of ascending node: 59.3231°
argument of perigee: 206.5625°
revolutions per day: 14.15830350
mean anomaly at epoch: 153.5080°
orbit number at epoch: 14470

The dashed part of the orbit path shows where the satellite is in the earth's shadow,  

DLR